This is the latest recevied weather packets stored in our database for station/object iz1wiy-3. If no packets are shown the sender has not sent any weather packets the latest 1 day(s).
| Time | Temp. | Humidity | Pressure | Rain* | Wind** | Luminosity | Snow |
|---|---|---|---|---|---|---|---|
| 1778035563 | 16.67° C | 88% | 1009.6 hPa | 1.78 mm | - | - | - |
| 1778035443 | 16.67° C | 88% | 1009.6 hPa | 1.78 mm | - | - | - |
| 1778035383 | 16.11° C | 88% | 1009.4 hPa | 1.78 mm | - | - | - |
| 1778035263 | 16.11° C | 88% | 1009.5 hPa | 1.78 mm | - | - | - |
| 1778035143 | 16.11° C | 88% | 1009.5 hPa | 2.03 mm | - | - | - |
| 1778035084 | 16.11° C | 88% | 1009.5 hPa | 2.29 mm | - | - | - |
| 1778035024 | 16.11° C | 88% | 1009.4 hPa | 2.54 mm | - | - | - |
| 1778034663 | 16.11° C | 88% | 1009.3 hPa | 3.05 mm | - | - | - |
| 1778034483 | 15.56° C | 89% | 1009.2 hPa | 3.05 mm | - | - | - |
| 1778034364 | 15.56° C | 89% | 1009.4 hPa | 3.3 mm | - | - | - |
| 1778034303 | 15.56° C | 89% | 1009.5 hPa | 3.56 mm | - | - | - |
| 1778034183 | 15.56° C | 89% | 1009.6 hPa | 4.32 mm | - | - | - |
| 1778034063 | 15.56° C | 89% | 1009.5 hPa | 4.32 mm | - | - | - |
| 1778033943 | 15° C | 89% | 1009.6 hPa | 4.83 mm | - | - | - |
| 1778033883 | 15° C | 90% | 1009.6 hPa | 4.83 mm | - | - | - |
| 1778033463 | 15° C | 89% | 1009.6 hPa | 4.57 mm | - | - | - |
| 1778033164 | 15° C | 90% | 1009.9 hPa | 4.57 mm | - | - | - |
| 1778033044 | 15° C | 91% | 1009.9 hPa | 4.57 mm | - | - | - |
| 1778032984 | 15° C | 91% | 1009.8 hPa | 4.57 mm | - | - | - |
| 1778032743 | 15° C | 90% | 1010 hPa | 4.57 mm | - | - | - |
| 1778032683 | 15° C | 91% | 1010 hPa | 4.57 mm | - | - | - |
| 1778032624 | 15° C | 91% | 1010.1 hPa | 4.32 mm | - | - | - |
| 1778032563 | 15° C | 91% | 1010.1 hPa | 4.32 mm | - | - | - |
| 1778032383 | 15° C | 91% | 1010.1 hPa | 4.32 mm | - | - | - |
| 1778032263 | 15° C | 91% | 1010.2 hPa | 4.32 mm | - | - | - |
* Rain latest hour (hover to see other rain measurements)
** Current wind speed in m/s (hover to see current wind gust speed)